| time (UTC) | temp F | wind direction | speed knots | gust knots | rain 1hr in | rain 24hr in | rain mn in | humidity % | barometer mb |
| 20260904205518 | 57 | 0 | 11.3 | 13.9 | 0.00 | 0.62 | 0.62 | 96 | 1008.3 |
| 20260904204517 | 58 | 0 | 11.3 | 16.5 | 0.00 | 0.62 | 0.62 | 96 | 1008.2 |
| 20260904203517 | 58 | 0 | 9.6 | 13.0 | 0.00 | 0.62 | 0.62 | 96 | 1008.2 |
| 20260904202518 | 58 | 0 | 10.4 | 13.9 | 0.00 | 0.62 | 0.62 | 97 | 1008.1 |
| 20260904201518 | 58 | 0 | 12.2 | 16.5 | 0.00 | 0.62 | 0.62 | 97 | 1007.9 |
| 20260904200518 | 58 | 0 | 12.2 | 15.6 | 0.02 | 0.62 | 0.62 | 97 | 1008.0 |
| 20260904195537 | 59 | 0 | 11.3 | 14.8 | 0.02 | 0.62 | 0.62 | 97 | 1007.9 |
| 20260904194517 | 59 | 0 | 12.2 | 16.5 | 0.02 | 0.62 | 0.62 | 96 | 1007.8 |
| 20260904193517 | 59 | 0 | 14.8 | 18.2 | 0.02 | 0.62 | 0.62 | 96 | 1007.7 |
| 20260904192517 | 59 | 0 | 13.9 | 19.1 | 0.02 | 0.62 | 0.62 | 96 | 1007.6 |
| 20260904191517 | 60 | 0 | 18.2 | 26.1 | 0.02 | 0.62 | 0.62 | 96 | 1007.4 |
| 20260904190518 | 61 | 0 | 14.8 | 19.1 | 0.01 | 0.61 | 0.61 | 96 | 1007.3 |
| 20260904185518 | 60 | 0 | 13.9 | 19.1 | 0.00 | 0.60 | 0.60 | 96 | 1007.0 |
| 20260904184517 | 60 | 0 | 13.9 | 16.5 | 0.00 | 0.60 | 0.60 | 96 | 1006.7 |
| 20260904183517 | 61 | 0 | 13.0 | 15.6 | 0.00 | 0.60 | 0.60 | 96 | 1006.5 |
| 20260904182517 | 61 | 0 | 13.0 | 19.1 | 0.00 | 0.60 | 0.60 | 97 | 1006.5 |
| 20260904181517 | 61 | 0 | 13.0 | 15.6 | 0.00 | 0.60 | 0.60 | 97 | 1006.4 |
| 20260904180517 | 61 | 0 | 13.0 | 19.1 | 0.00 | 0.60 | 0.60 | 97 | 1006.2 |
| 20260904175517 | 61 | 0 | 13.9 | 20.9 | 0.00 | 0.60 | 0.60 | 97 | 1006.0 |
| 20260904174517 | 61 | 0 | 15.6 | 21.7 | 0.00 | 0.60 | 0.60 | 97 | 1005.8 |
| 20260904173517 | 61 | 0 | 15.6 | 21.7 | 0.00 | 0.60 | 0.60 | 98 | 1005.5 |
| 20260904172538 | 62 | 0 | 19.1 | 26.9 | 0.00 | 0.60 | 0.60 | 97 | 1005.4 |
| 20260904171517 | 62 | 0 | 19.1 | 28.7 | 0.00 | 0.60 | 0.60 | 98 | 1005.4 |
| 20260904170517 | 62 | 0 | 18.2 | 23.5 | 0.00 | 0.60 | 0.60 | 98 | 1005.2 |
| 20260904165517 | 62 | 0 | 19.1 | 26.1 | 0.04 | 0.60 | 0.60 | 98 | 1005.0 |
| 20260904164517 | 63 | 0 | 20.9 | 26.1 | 0.04 | 0.60 | 0.60 | 98 | 1004.7 |
| 20260904163517 | 63 | 0 | 20.0 | 26.9 | 0.04 | 0.60 | 0.60 | 98 | 1004.5 |
| 20260904162517 | 64 | 0 | 16.5 | 22.6 | 0.04 | 0.60 | 0.60 | 98 | 1004.5 |
| 20260904161537 | 64 | 0 | 18.2 | 27.8 | 0.04 | 0.60 | 0.60 | 98 | 1004.3 |
| 20260904160558 | 64 | 0 | 14.8 | 21.7 | 0.04 | 0.60 | 0.60 | 98 | 1004.0 |
| 20260904155517 | 64 | 0 | 7.8 | 13.0 | 0.00 | 0.56 | 0.56 | 98 | 1003.9 |
| 20260904154517 | 64 | 0 | 5.2 | 8.7 | 0.00 | 0.56 | 0.56 | 98 | 1004.0 |
| 20260904153517 | 64 | 0 | 7.0 | 9.6 | 0.00 | 0.56 | 0.56 | 98 | 1004.0 |
| 20260904152517 | 64 | 0 | 7.0 | 11.3 | 0.00 | 0.56 | 0.56 | 98 | 1004.2 |
| 20260904151517 | 64 | 0 | 7.8 | 12.2 | 0.00 | 0.56 | 0.56 | 98 | 1004.4 |
| 20260904150517 | 64 | 0 | 5.2 | 9.6 | 0.00 | 0.56 | 0.56 | 98 | 1003.3 |
| 20260904145517 | 64 | 0 | 9.6 | 13.0 | 0.01 | 0.56 | 0.56 | 98 | 1004.4 |
| 20260904144537 | 64 | 0 | 13.0 | 16.5 | 0.01 | 0.56 | 0.56 | 99 | 1004.8 |
| 20260904143517 | 64 | 0 | 10.4 | 13.9 | 0.01 | 0.56 | 0.56 | 99 | 1004.4 |
| 20260904142517 | 63 | 0 | 11.3 | 15.6 | 0.01 | 0.56 | 0.56 | 98 | 1004.6 |
| 20260904141517 | 64 | 0 | 9.6 | 12.2 | 0.01 | 0.56 | 0.56 | 99 | 1004.1 |
| 20260904140517 | 64 | 0 | 10.4 | 13.9 | 0.01 | 0.56 | 0.56 | 99 | 1004.4 |
| 20260904135517 | 63 | 0 | 8.7 | 11.3 | 0.00 | 0.55 | 0.55 | 99 | 1004.3 |
| 20260904134617 | 63 | 0 | 9.6 | 14.8 | 0.00 | 0.55 | 0.55 | 98 | 1004.3 |
| 20260904133537 | 64 | 0 | 9.6 | 13.0 | 0.00 | 0.55 | 0.55 | 98 | 1004.6 |
| 20260904132517 | 64 | 0 | 10.4 | 13.9 | 0.00 | 0.55 | 0.55 | 99 | 1004.6 |
| 20260904131517 | 65 | 0 | 11.3 | 14.8 | 0.03 | 0.55 | 0.55 | 98 | 1004.4 |
| 20260904130517 | 66 | 0 | 9.6 | 13.0 | 0.17 | 0.55 | 0.55 | 99 | 1004.3 |
| 20260904125517 | 66 | 0 | 10.4 | 13.0 | 0.17 | 0.56 | 0.55 | 99 | 1004.4 |
| 20260904124517 | 64 | 0 | 9.6 | 12.2 | 0.17 | 0.56 | 0.55 | 98 | 1004.3 |
| 20260904123516 | 63 | 0 | 10.4 | 13.0 | 0.17 | 0.56 | 0.55 | 98 | 1004.1 |
| 20260904122517 | 63 | 0 | 10.4 | 13.9 | 0.17 | 0.56 | 0.55 | 98 | 1004.1 |
| 20260904121517 | 63 | 0 | 17.4 | 32.2 | 0.15 | 0.53 | 0.52 | 97 | 1004.3 |
| 20260904120517 | 66 | 0 | 16.5 | 26.9 | 0.03 | 0.39 | 0.39 | 98 | 1002.6 |
| 20260904115517 | 66 | 0 | 10.4 | 20.0 | 0.03 | 0.39 | 0.39 | 99 | 1002.8 |
| 20260904114537 | 66 | 0 | 9.6 | 17.4 | 0.03 | 0.39 | 0.39 | 98 | 1002.8 |
| 20260904113516 | 66 | 0 | 13.0 | 17.4 | 0.03 | 0.39 | 0.39 | 98 | 1003.1 |
| 20260904112516 | 66 | 0 | 13.9 | 20.0 | 0.02 | 0.39 | 0.38 | 98 | 1003.4 |
| 20260904111516 | 66 | 0 | 10.4 | 15.6 | 0.02 | 0.38 | 0.37 | 98 | 1003.5 |
| 20260904110517 | 66 | 0 | 10.4 | 13.9 | 0.02 | 0.36 | 0.35 | 98 | 1003.6 |
| 20260904105516 | 66 | 0 | 12.2 | 16.5 | 0.02 | 0.36 | 0.35 | 98 | 1003.7 |
| 20260904104516 | 66 | 0 | 10.4 | 16.5 | 0.03 | 0.36 | 0.35 | 98 | 1003.8 |
| 20260904103516 | 66 | 0 | 12.2 | 20.0 | 0.03 | 0.36 | 0.35 | 98 | 1004.0 |
| 20260904102516 | 66 | 0 | 5.2 | 8.7 | 0.03 | 0.36 | 0.35 | 99 | 1004.0 |
| 20260904101516 | 66 | 225 | 1.7 | 3.5 | 0.05 | 0.36 | 0.35 | 99 | 1004.1 |
| 20260904100517 | 65 | 225 | 3.5 | 5.2 | 0.05 | 0.35 | 0.34 | 99 | 1004.4 |
| 20260904095517 | 65 | 0 | 3.5 | 7.0 | 0.06 | 0.35 | 0.34 | 99 | 1004.8 |
| 20260904094516 | 66 | 0 | 6.1 | 8.7 | 0.06 | 0.33 | 0.32 | 99 | 1005.2 |
| 20260904093516 | 65 | 0 | 7.8 | 10.4 | 0.08 | 0.33 | 0.32 | 98 | 1005.5 |
| 20260904092517 | 65 | 0 | 11.3 | 13.9 | 0.09 | 0.33 | 0.32 | 98 | 1005.6 |
| 20260904091516 | 64 | 0 | 13.9 | 19.1 | 0.09 | 0.31 | 0.31 | 98 | 1005.6 |
| 20260904090516 | 64 | 0 | 8.7 | 12.2 | 0.09 | 0.30 | 0.29 | 98 | 1005.8 |
| 20260904085518 | 64 | 0 | 7.0 | 10.4 | 0.10 | 0.29 | 0.28 | 98 | 1006.0 |
| 20260904084518 | 64 | 0 | 6.1 | 13.0 | 0.11 | 0.28 | 0.27 | 98 | 1006.0 |
| 20260904083539 | 64 | 0 | 4.3 | 9.6 | 0.10 | 0.25 | 0.24 | 98 | 1006.2 |
| 20260904082518 | 64 | 0 | 5.2 | 9.6 | 0.11 | 0.24 | 0.24 | 98 | 1006.3 |
| 20260904081518 | 64 | 0 | 6.1 | 12.2 | 0.09 | 0.22 | 0.21 | 98 | 1006.4 |
| 20260904080518 | 64 | 0 | 5.2 | 9.6 | 0.08 | 0.20 | 0.20 | 98 | 1006.5 |
| 20260904075518 | 63 | 0 | 5.2 | 9.6 | 0.06 | 0.19 | 0.18 | 98 | 1006.7 |
| 20260904074520 | 63 | 0 | 5.2 | 9.6 | 0.04 | 0.17 | 0.16 | 98 | 1006.8 |
| 20260904073518 | 63 | 0 | 9.6 | 14.8 | 0.02 | 0.15 | 0.14 | 98 | 1007.1 |
| 20260904072518 | 63 | 0 | 12.2 | 16.5 | 0.01 | 0.13 | 0.13 | 98 | 1007.4 |
| 20260904071518 | 63 | 0 | 8.7 | 13.0 | 0.01 | 0.13 | 0.12 | 98 | 1007.2 |
| 20260904070518 | 63 | 0 | 4.3 | 10.4 | 0.02 | 0.13 | 0.12 | 98 | 1007.4 |
| 20260904065518 | 63 | 0 | 5.2 | 11.3 | 0.02 | 0.13 | 0.12 | 97 | 1007.6 |
| 20260904064518 | 63 | 0 | 6.1 | 11.3 | 0.02 | 0.13 | 0.12 | 97 | 1007.6 |
| 20260904063518 | 62 | 0 | 3.5 | 8.7 | 0.02 | 0.13 | 0.12 | 97 | 1007.7 |
| 20260904062518 | 62 | 0 | 5.2 | 11.3 | 0.02 | 0.13 | 0.12 | 97 | 1008.0 |
| 20260904061518 | 62 | 0 | 6.1 | 13.9 | 0.07 | 0.12 | 0.11 | 97 | 1008.2 |
| 20260904060518 | 62 | 0 | 5.2 | 10.4 | 0.09 | 0.11 | 0.10 | 97 | 1008.4 |
| 20260904055538 | 62 | 0 | 7.0 | 12.2 | 0.10 | 0.11 | 0.10 | 97 | 1008.4 |
| 20260904054518 | 62 | 0 | 6.1 | 14.8 | 0.10 | 0.11 | 0.10 | 96 | 1008.5 |
| 20260904053518 | 61 | 0 | 4.3 | 7.8 | 0.10 | 0.11 | 0.10 | 96 | 1008.8 |
| 20260904052518 | 61 | 225 | 0.9 | 2.6 | 0.09 | 0.10 | 0.09 | 96 | 1008.8 |
| 20260904051518 | 61 | 203 | 1.7 | 5.2 | 0.04 | 0.05 | 0.04 | 95 | 1009.0 |
| 20260904050518 | 61 | 203 | 1.7 | 5.2 | 0.01 | 0.02 | 0.01 | 94 | 1009.2 |
| 20260904045518 | 61 | 180 | 1.7 | 5.2 | 0.00 | 0.01 | 0.00 | 93 | 1009.3 |
| 20260904044518 | 61 | 180 | 1.7 | 5.2 | 0.00 | 0.01 | 0.00 | 93 | 1009.5 |
| 20260904043518 | 61 | 203 | 2.6 | 5.2 | 0.00 | 0.01 | 0.00 | 93 | 1009.9 |
| 20260904042518 | 61 | 203 | 1.7 | 5.2 | 0.00 | 0.01 | 0.00 | 93 | 1010.1 |
| 20260904041518 | 61 | 0 | 1.7 | 5.2 | 0.00 | 0.01 | 0.00 | 93 | 1010.3 |
| 20260904040518 | 61 | 0 | 3.5 | 7.8 | 0.00 | 0.01 | 0.00 | 92 | 1010.6 |
| 20260904035518 | 62 | 0 | 3.5 | 7.8 | 0.00 | 0.02 | 0.00 | 92 | 1010.6 |
| 20260904034538 | 62 | 0 | 3.5 | 7.0 | 0.00 | 0.02 | 0.00 | 92 | 1010.7 |
| 20260904033517 | 62 | 0 | 2.6 | 7.0 | 0.00 | 0.02 | 0.00 | 92 | 1010.7 |
| 20260904032518 | 62 | 0 | 4.3 | 9.6 | 0.00 | 0.02 | 0.00 | 91 | 1011.0 |
| 20260904031518 | 62 | 0 | 5.2 | 8.7 | 0.00 | 0.02 | 0.00 | 91 | 1011.1 |
| 20260904030518 | 62 | 0 | 4.3 | 8.7 | 0.00 | 0.02 | 0.00 | 91 | 1011.3 |
| 20260904025517 | 62 | 0 | 5.2 | 9.6 | 0.00 | 0.02 | 0.00 | 90 | 1011.4 |
| 20260904024517 | 62 | 0 | 5.2 | 10.4 | 0.00 | 0.02 | 0.00 | 90 | 1011.6 |
| 20260904023518 | 62 | 0 | 4.3 | 10.4 | 0.00 | 0.02 | 0.00 | 90 | 1011.5 |
| 20260904022518 | 62 | 0 | 5.2 | 7.8 | 0.00 | 0.02 | 0.00 | 90 | 1011.5 |
| 20260904021518 | 62 | 0 | 5.2 | 8.7 | 0.00 | 0.02 | 0.00 | 90 | 1011.7 |
| 20260904020518 | 62 | 0 | 7.8 | 11.3 | 0.00 | 0.02 | 0.00 | 90 | 1011.9 |
| 20260904015517 | 62 | 0 | 7.8 | 10.4 | 0.00 | 0.02 | 0.00 | 91 | 1011.8 |
| 20260904014518 | 62 | 0 | 7.8 | 10.4 | 0.00 | 0.02 | 0.00 | 91 | 1011.9 |
| 20260904013538 | 62 | 0 | 7.8 | 10.4 | 0.00 | 0.02 | 0.00 | 91 | 1012.1 |
| 20260904012517 | 62 | 0 | 7.8 | 11.3 | 0.00 | 0.02 | 0.00 | 91 | 1012.1 |
| 20260904011518 | 62 | 0 | 8.7 | 13.9 | 0.00 | 0.02 | 0.00 | 91 | 1012.3 |
| 20260904010518 | 62 | 0 | 8.7 | 12.2 | 0.00 | 0.02 | 0.00 | 91 | 1012.2 |
| 20260904005537 | 62 | 0 | 9.6 | 13.9 | 0.00 | 0.02 | 0.00 | 91 | 1012.4 |
| 20260904004517 | 62 | 0 | 11.3 | 16.5 | 0.00 | 0.02 | 0.00 | 91 | 1012.5 |
| 20260904003518 | 62 | 0 | 10.4 | 16.5 | 0.00 | 0.02 | 0.00 | 91 | 1012.5 |
| 20260904002517 | 62 | 0 | 10.4 | 14.8 | 0.00 | 0.02 | 0.00 | 91 | 1012.4 |
| 20260904001518 | 62 | 0 | 10.4 | 14.8 | 0.00 | 0.02 | 0.00 | 91 | 1012.5 |
| 20260904000537 | 62 | 0 | 9.6 | 12.2 | 0.00 | 0.02 | 0.00 | 91 | 1012.5 |
| 20260903235517 | 62 | 0 | 9.6 | 13.0 | 0.00 | 0.02 | 0.00 | 91 | 1012.5 |
| 20260903234517 | 62 | 0 | 8.7 | 11.3 | 0.00 | 0.02 | 0.00 | 90 | 1012.6 |
| 20260903233517 | 63 | 0 | 10.4 | 13.0 | 0.00 | 0.02 | 0.00 | 90 | 1012.6 |
| 20260903232537 | 63 | 0 | 9.6 | 12.2 | 0.00 | 0.02 | 0.00 | 90 | 1012.7 |
| 20260903231557 | 63 | 0 | 10.4 | 13.9 | 0.00 | 0.02 | 0.00 | 91 | 1012.8 |
| 20260903230517 | 62 | 0 | 9.6 | 13.9 | 0.00 | 0.02 | 0.00 | 91 | 1012.9 |
| 20260903225537 | 62 | 0 | 9.6 | 12.2 | 0.00 | 0.02 | 0.00 | 91 | 1012.9 |
| 20260903224518 | 62 | 0 | 7.8 | 9.6 | 0.00 | 0.02 | 0.00 | 91 | 1012.8 |
| 20260903223518 | 62 | 0 | 8.7 | 12.2 | 0.00 | 0.02 | 0.00 | 91 | 1012.9 |
| 20260903222517 | 63 | 0 | 8.7 | 12.2 | 0.00 | 0.02 | 0.00 | 91 | 1013.0 |
| 20260903221517 | 63 | 0 | 8.7 | 12.2 | 0.00 | 0.02 | 0.00 | 91 | 1012.9 |
| 20260903220517 | 63 | 0 | 8.7 | 13.9 | 0.00 | 0.02 | 0.00 | 91 | 1013.1 |
| 20260903215517 | 63 | 0 | 11.3 | 14.8 | 0.00 | 0.02 | 0.02 | 91 | 1013.1 |
| 20260903214517 | 63 | 0 | 9.6 | 13.9 | 0.00 | 0.02 | 0.02 | 92 | 1013.3 |
| 20260903213537 | 62 | 0 | 7.8 | 12.2 | 0.00 | 0.02 | 0.02 | 92 | 1013.2 |
| 20260903212517 | 63 | 0 | 3.5 | 5.2 | 0.00 | 0.02 | 0.02 | 92 | 1013.1 |
| 20260903211537 | 62 | 0 | 6.1 | 8.7 | 0.00 | 0.02 | 0.02 | 91 | 1013.2 |
| 20260903210537 | 63 | 0 | 5.2 | 7.8 | 0.00 | 0.02 | 0.02 | 91 | 1013.1 |